ETH819 HAAB-FQMA

Flight info

Callsign ETH819
Flight time N/A
Altitude 36000
Route SHALA2A SHALA UM308 RUDOL/N0496F350 UM308 LOTAS/N0495F360 UM441 LOSIN UM315 DVL UG656 VTZ/N0490F380 UG656 EGPON EGPON1A
Aircraft B788/H-SDE1E2E3FGHIJ2J3J4J5M1RWXY/LB1D1

Departure

Time 2026-04-27 09:54
Airport Addis Ababa Bole International Airport (HAAB)

Arrival

Time N/A
Airport Maputo Airport (FQMA)
Time Latitude Longitude Altitude Speed Heading
2026-04-27 08:54 8.98170 38.79464 7623 ft 0 kts 341°
2026-04-27 09:44 8.98149 38.79470 7625 ft 4 kts 345°
2026-04-27 09:45 8.98124 38.79476 7625 ft 4 kts 349°
2026-04-27 09:45 8.98111 38.79485 7632 ft 4 kts 305°
2026-04-27 09:45 8.98105 38.79506 7623 ft 4 kts 264°
2026-04-27 09:45 8.98112 38.79529 7627 ft 2 kts 252°
2026-04-27 09:46 8.98112 38.79531 7627 ft 0 kts 252°
2026-04-27 09:48 8.98111 38.79528 7627 ft 2 kts 252°
2026-04-27 09:49 8.98104 38.79504 7623 ft 5 kts 252°
2026-04-27 09:49 8.98090 38.79458 7626 ft 9 kts 252°
2026-04-27 09:49 8.98068 38.79387 7623 ft 13 kts 253°
2026-04-27 09:49 8.98038 38.79289 7623 ft 17 kts 253°
2026-04-27 09:50 8.98000 38.79165 7623 ft 20 kts 253°
2026-04-27 09:50 8.97956 38.79017 7623 ft 24 kts 253°
2026-04-27 09:50 8.97907 38.78848 7623 ft 25 kts 255°
2026-04-27 09:50 8.97808 38.78754 7624 ft 20 kts 177°
2026-04-27 09:51 8.97677 38.78788 7624 ft 20 kts 162°
2026-04-27 09:51 8.97561 38.78781 7627 ft 17 kts 236°
2026-04-27 09:51 8.97521 38.78668 7627 ft 18 kts 255°
2026-04-27 09:51 8.97486 38.78542 7626 ft 19 kts 253°
2026-04-27 09:52 8.97447 38.78409 7627 ft 20 kts 253°
2026-04-27 09:52 8.97397 38.78287 7627 ft 15 kts 205°
2026-04-27 09:52 8.97318 38.78322 7624 ft 12 kts 140°
2026-04-27 09:52 8.97254 38.78376 7621 ft 10 kts 110°
2026-04-27 09:53 8.97256 38.78443 7622 ft 12 kts 78°
2026-04-27 09:53 8.97316 38.78645 7627 ft 56 kts 73°
2026-04-27 09:53 8.97484 38.79218 7622 ft 113 kts 72°
2026-04-27 09:53 8.97760 38.80145 7625 ft 161 kts 73°
2026-04-27 09:54 8.98117 38.81371 7676 ft 198 kts 76°
2026-04-27 09:54 8.98501 38.82704 8472 ft 195 kts 74°
2026-04-27 09:54 8.98894 38.84003 9445 ft 193 kts 74°
2026-04-27 09:54 8.99235 38.85318 10139 ft 198 kts 76°
2026-04-27 09:55 8.99593 38.86737 10599 ft 215 kts 75°
2026-04-27 09:55 8.99769 38.88240 11294 ft 217 kts 100°
2026-04-27 09:55 8.97770 38.90109 12671 ft 218 kts 180°
2026-04-27 09:56 8.96245 38.89827 13164 ft 229 kts 205°
2026-04-27 09:56 8.94964 38.88874 13782 ft 233 kts 237°
2026-04-27 09:56 8.94413 38.87338 14384 ft 242 kts 262°
2026-04-27 09:56 8.94174 38.85599 14853 ft 254 kts 256°
2026-04-27 09:57 8.93421 38.84045 15895 ft 242 kts 226°
2026-04-27 09:57 8.91997 38.83139 16497 ft 254 kts 198°
2026-04-27 09:57 8.90204 38.82736 16884 ft 270 kts 192°
2026-04-27 09:57 8.88449 38.82365 17328 ft 282 kts 197°
2026-04-27 09:58 8.86493 38.81738 16829 ft 308 kts 196°
2026-04-27 09:58 8.84360 38.81087 16959 ft 333 kts 194°
2026-04-27 09:58 8.82069 38.80476 17061 ft 357 kts 193°
2026-04-27 09:58 8.79582 38.79820 17158 ft 381 kts 193°
2026-04-27 09:59 8.76961 38.79090 17473 ft 396 kts 194°
2026-04-27 09:59 8.74303 38.78339 18229 ft 398 kts 193°
2026-04-27 09:59 8.71617 38.77599 18823 ft 402 kts 193°
2026-04-27 09:59 8.68902 38.76858 19364 ft 407 kts 193°
2026-04-27 10:00 8.66160 38.76103 19932 ft 410 kts 193°
2026-04-27 10:00 8.63412 38.75267 20475 ft 415 kts 198°
2026-04-27 10:00 8.60666 38.74317 20990 ft 419 kts 197°
2026-04-27 10:00 8.57873 38.73402 21525 ft 423 kts 196°
2026-04-27 10:01 8.55058 38.72465 22038 ft 428 kts 197°
2026-04-27 10:01 8.52227 38.71496 22556 ft 432 kts 197°
2026-04-27 10:01 8.49373 38.70522 23063 ft 435 kts 197°
2026-04-27 10:01 8.46483 38.69552 23548 ft 440 kts 197°
2026-04-27 10:02 8.43568 38.68573 23965 ft 443 kts 197°
2026-04-27 10:02 8.40634 38.67581 24397 ft 446 kts 197°
2026-04-27 10:02 8.37680 38.66580 24805 ft 449 kts 197°
2026-04-27 10:02 8.34705 38.65576 25218 ft 452 kts 197°
2026-04-27 10:03 8.31709 38.64567 25620 ft 455 kts 197°
2026-04-27 10:03 8.28694 38.63549 26026 ft 458 kts 197°
2026-04-27 10:03 8.25701 38.62539 26419 ft 461 kts 197°
2026-04-27 10:03 8.22608 38.61495 26800 ft 464 kts 197°
2026-04-27 10:04 8.19579 38.60474 27184 ft 466 kts 197°
2026-04-27 10:04 8.16451 38.59420 27572 ft 469 kts 197°
2026-04-27 10:04 8.13390 38.58387 27947 ft 471 kts 197°
2026-04-27 10:04 8.10271 38.57336 28302 ft 474 kts 197°
2026-04-27 10:05 8.07139 38.56281 28660 ft 476 kts 197°
2026-04-27 10:05 8.03987 38.55218 29009 ft 479 kts 197°
2026-04-27 10:05 8.00818 38.54150 29344 ft 481 kts 197°
2026-04-27 10:05 7.97635 38.53078 29692 ft 484 kts 197°
2026-04-27 10:06 7.94435 38.52001 30029 ft 486 kts 197°
2026-04-27 10:06 7.91216 38.50917 30297 ft 488 kts 197°
2026-04-27 10:06 7.87989 38.49830 30576 ft 491 kts 197°
2026-04-27 10:06 7.84742 38.48737 30846 ft 492 kts 197°
2026-04-27 10:07 7.81490 38.47642 31100 ft 494 kts 197°
2026-04-27 10:07 7.78218 38.46541 31346 ft 496 kts 197°
2026-04-27 10:07 7.74940 38.45438 31596 ft 498 kts 197°
2026-04-27 10:07 7.71646 38.44330 31841 ft 500 kts 197°
2026-04-27 10:08 7.68339 38.43218 32063 ft 502 kts 197°
2026-04-27 10:08 7.65019 38.42101 32293 ft 504 kts 197°
2026-04-27 10:08 7.61686 38.40980 32509 ft 506 kts 197°
2026-04-27 10:08 7.58340 38.39855 32722 ft 508 kts 197°
2026-04-27 10:09 7.54981 38.38726 32948 ft 510 kts 197°
2026-04-27 10:09 7.51612 38.37594 33178 ft 511 kts 197°
2026-04-27 10:09 7.48229 38.36464 33373 ft 513 kts 195°
2026-04-27 10:09 7.44784 38.35521 33572 ft 514 kts 194°
2026-04-27 10:10 7.41334 38.34582 33885 ft 513 kts 194°
2026-04-27 10:10 7.37891 38.33635 34155 ft 513 kts 194°
2026-04-27 10:10 7.34451 38.32700 34437 ft 511 kts 194°
2026-04-27 10:10 7.31016 38.31773 34713 ft 510 kts 194°
2026-04-27 10:11 7.27590 38.30844 34983 ft 510 kts 194°
2026-04-27 10:11 7.24171 38.29912 35272 ft 508 kts 194°
2026-04-27 10:11 7.20758 38.28984 35530 ft 508 kts 194°
2026-04-27 10:11 7.17351 38.28061 35821 ft 506 kts 194°
2026-04-27 10:12 7.13949 38.27139 35975 ft 508 kts 194°
2026-04-27 10:12 7.10529 38.26210 35976 ft 510 kts 194°
2026-04-27 10:12 7.03703 38.24356 35981 ft 505 kts 194°
2026-04-27 10:13 6.96938 38.22523 35979 ft 503 kts 194°
2026-04-27 10:13 6.90181 38.20689 35982 ft 503 kts 194°
2026-04-27 10:14 6.83468 38.18870 35977 ft 503 kts 194°
2026-04-27 10:14 6.76702 38.17036 35977 ft 504 kts 194°
2026-04-27 10:15 6.69931 38.15202 35978 ft 504 kts 194°
2026-04-27 10:15 6.63155 38.13367 35983 ft 505 kts 194°
2026-04-27 10:16 6.56374 38.11530 35979 ft 504 kts 194°
2026-04-27 10:16 6.49602 38.09694 35976 ft 503 kts 194°
2026-04-27 10:17 6.42850 38.07847 35978 ft 503 kts 194°
2026-04-27 10:17 6.36103 38.06011 35979 ft 502 kts 194°
2026-04-27 10:18 6.29350 38.04169 35983 ft 503 kts 194°
2026-04-27 10:18 6.22602 38.02331 35979 ft 502 kts 194°
2026-04-27 10:19 6.15865 38.00496 35982 ft 502 kts 194°
2026-04-27 10:19 6.09110 37.98656 35982 ft 503 kts 194°
2026-04-27 10:20 6.02351 37.96816 35980 ft 503 kts 194°
2026-04-27 10:20 5.95587 37.94975 35982 ft 504 kts 194°
2026-04-27 10:21 5.88815 37.93132 35979 ft 504 kts 194°
2026-04-27 10:21 5.82033 37.91288 35981 ft 505 kts 194°
2026-04-27 10:22 5.75241 37.89441 35985 ft 506 kts 194°
2026-04-27 10:22 5.68438 37.87591 35985 ft 507 kts 194°
2026-04-27 10:23 5.61626 37.85739 35985 ft 507 kts 194°
2026-04-27 10:23 5.54816 37.83888 35982 ft 507 kts 194°
2026-04-27 10:24 5.48002 37.82037 35979 ft 507 kts 194°
2026-04-27 10:24 5.41228 37.80197 35976 ft 508 kts 194°
2026-04-27 10:25 5.34409 37.78345 35969 ft 508 kts 194°
2026-04-27 10:25 5.27582 37.76492 35964 ft 508 kts 194°
2026-04-27 10:26 5.21866 37.74940 35963 ft 508 kts 194°
2026-04-27 10:26 5.15044 37.73089 35958 ft 508 kts 194°
2026-04-27 10:27 5.08270 37.71251 35956 ft 508 kts 194°
2026-04-27 10:27 5.01449 37.69400 35953 ft 508 kts 194°
2026-04-27 10:28 4.94614 37.67546 35953 ft 508 kts 194°
2026-04-27 10:28 4.87786 37.65695 35954 ft 508 kts 194°
2026-04-27 10:29 4.80969 37.63847 35953 ft 507 kts 194°
2026-04-27 10:29 4.74161 37.62002 35951 ft 507 kts 194°
2026-04-27 10:30 4.67349 37.60156 35950 ft 508 kts 194°
2026-04-27 10:30 4.60520 37.58305 35949 ft 508 kts 194°
2026-04-27 10:31 4.53693 37.56456 35946 ft 508 kts 194°
2026-04-27 10:31 4.46866 37.54607 35948 ft 508 kts 194°
2026-04-27 10:32 4.40033 37.52757 35944 ft 509 kts 194°
2026-04-27 10:32 4.33191 37.50905 35944 ft 510 kts 194°
2026-04-27 10:33 4.26345 37.49052 35943 ft 510 kts 194°
2026-04-27 10:33 4.19506 37.47201 35936 ft 508 kts 193°
2026-04-27 10:34 4.12683 37.45355 35932 ft 508 kts 193°
2026-04-27 10:34 4.05861 37.43509 35927 ft 508 kts 193°
2026-04-27 10:35 3.99044 37.41646 35931 ft 508 kts 197°
2026-04-27 10:35 3.92274 37.39644 35931 ft 507 kts 194°
2026-04-27 10:36 3.85499 37.37654 35931 ft 508 kts 195°
2026-04-27 10:36 3.78774 37.35653 35926 ft 507 kts 194°
2026-04-27 10:37 3.72004 37.33665 35925 ft 507 kts 195°
2026-04-27 10:37 3.65232 37.31656 35925 ft 508 kts 195°
2026-04-27 10:38 3.58458 37.29661 35921 ft 507 kts 195°
2026-04-27 10:38 3.51696 37.27660 35917 ft 506 kts 195°
2026-04-27 10:39 3.44945 37.25669 35914 ft 505 kts 195°
2026-04-27 10:39 3.38198 37.23676 35912 ft 505 kts 195°
2026-04-27 10:40 3.31456 37.21687 35910 ft 505 kts 195°
2026-04-27 10:40 3.24701 37.19693 35909 ft 506 kts 195°
2026-04-27 10:41 3.17942 37.17699 35909 ft 507 kts 195°
2026-04-27 10:41 3.11176 37.15703 35913 ft 507 kts 195°
2026-04-27 10:42 3.04405 37.13705 35912 ft 508 kts 195°
2026-04-27 10:42 2.97629 37.11706 35910 ft 506 kts 195°
2026-04-27 10:43 2.90879 37.09716 35916 ft 505 kts 195°
2026-04-27 10:43 2.84181 37.07741 35918 ft 505 kts 195°
2026-04-27 10:44 2.77439 37.05753 35918 ft 505 kts 195°
2026-04-27 10:44 2.70691 37.03763 35927 ft 506 kts 195°
2026-04-27 10:45 2.63943 37.01774 35928 ft 505 kts 195°
2026-04-27 10:45 2.57200 36.99787 35934 ft 505 kts 195°
2026-04-27 10:46 2.50468 36.97803 35930 ft 504 kts 195°
2026-04-27 10:46 2.43745 36.95822 35936 ft 504 kts 195°
2026-04-27 10:47 2.37012 36.93838 35934 ft 505 kts 195°
2026-04-27 10:47 2.30263 36.91849 35944 ft 506 kts 195°
2026-04-27 10:48 2.23515 36.89861 35945 ft 506 kts 195°
2026-04-27 10:48 2.16766 36.87873 35949 ft 505 kts 195°
2026-04-27 10:49 2.10023 36.85887 35954 ft 505 kts 195°
2026-04-27 10:49 2.03282 36.83902 35959 ft 505 kts 195°
2026-04-27 10:50 1.96545 36.81918 35954 ft 505 kts 195°
2026-04-27 10:50 1.89807 36.79934 35960 ft 505 kts 195°
2026-04-27 10:51 1.83062 36.77948 35958 ft 505 kts 195°
2026-04-27 10:51 1.76311 36.75960 35953 ft 506 kts 195°
2026-04-27 10:52 1.69560 36.73973 35955 ft 505 kts 195°
2026-04-27 10:52 1.62815 36.71987 35959 ft 505 kts 195°
2026-04-27 10:53 1.52700 36.69010 35967 ft 505 kts 195°
2026-04-27 10:54 1.45963 36.67027 35971 ft 504 kts 195°
2026-04-27 10:54 1.39229 36.65045 35978 ft 504 kts 195°
2026-04-27 10:55 1.32508 36.63067 35981 ft 503 kts 195°
2026-04-27 10:55 1.25838 36.61105 35984 ft 503 kts 195°
2026-04-27 10:56 1.19132 36.59131 35985 ft 502 kts 195°
2026-04-27 10:56 1.12428 36.57159 35992 ft 502 kts 195°
2026-04-27 10:57 1.05718 36.55184 35995 ft 503 kts 195°
2026-04-27 10:57 0.98969 36.53366 36028 ft 501 kts 185°
2026-04-27 10:58 0.92031 36.52649 36013 ft 502 kts 184°
2026-04-27 10:58 0.85079 36.51963 36024 ft 502 kts 184°
2026-04-27 10:59 0.78121 36.51263 36023 ft 503 kts 184°
2026-04-27 10:59 0.71163 36.50573 36028 ft 501 kts 184°
2026-04-27 11:00 0.60776 36.49536 36040 ft 500 kts 184°
2026-04-27 11:00 0.53845 36.48845 36045 ft 501 kts 184°
2026-04-27 11:01 0.46910 36.48153 36053 ft 501 kts 184°
2026-04-27 11:01 0.39970 36.47461 36062 ft 502 kts 184°
2026-04-27 11:02 0.33014 36.46767 36068 ft 503 kts 184°
2026-04-27 11:02 0.26048 36.46073 36077 ft 503 kts 184°
2026-04-27 11:03 0.19075 36.45377 36090 ft 503 kts 184°
2026-04-27 11:03 0.12104 36.44682 36101 ft 503 kts 184°
2026-04-27 11:04 0.05193 36.43993 36114 ft 502 kts 184°
2026-04-27 11:04 -0.01746 36.43301 36122 ft 501 kts 184°
2026-04-27 11:05 -0.08680 36.42610 36130 ft 501 kts 184°
2026-04-27 11:05 -0.15628 36.41917 36144 ft 502 kts 184°
2026-04-27 11:06 -0.22593 36.41223 36155 ft 504 kts 184°
2026-04-27 11:06 -0.29566 36.40527 36164 ft 503 kts 184°
2026-04-27 11:07 -0.36526 36.39833 36166 ft 502 kts 184°
2026-04-27 11:07 -0.43480 36.39140 36167 ft 502 kts 184°
2026-04-27 11:08 -0.50435 36.38447 36170 ft 502 kts 184°
2026-04-27 11:08 -0.57392 36.37753 36170 ft 502 kts 184°
2026-04-27 11:09 -0.64361 36.37071 36170 ft 503 kts 184°
2026-04-27 11:09 -0.71341 36.36395 36176 ft 504 kts 184°
2026-04-27 11:10 -0.78328 36.35711 36177 ft 504 kts 184°
2026-04-27 11:10 -0.85309 36.35033 36174 ft 504 kts 184°
2026-04-27 11:11 -0.92290 36.34311 36173 ft 505 kts 184°
2026-04-27 11:11 -0.99282 36.33602 36173 ft 505 kts 184°
2026-04-27 11:12 -1.06273 36.32888 36168 ft 504 kts 184°
2026-04-27 11:12 -1.13250 36.32177 36167 ft 504 kts 184°
2026-04-27 11:13 -1.20231 36.31488 36157 ft 505 kts 184°
2026-04-27 11:13 -1.27222 36.30787 36151 ft 505 kts 184°
2026-04-27 11:14 -1.33035 36.30208 36145 ft 505 kts 184°
2026-04-27 11:14 -1.41160 36.29398 36137 ft 505 kts 184°
2026-04-27 11:15 -1.47025 36.28813 36129 ft 505 kts 184°
2026-04-27 11:15 -1.54028 36.28115 36117 ft 506 kts 184°
2026-04-27 11:16 -1.61039 36.27415 36103 ft 507 kts 184°
2026-04-27 11:16 -1.68066 36.26714 36096 ft 507 kts 184°
2026-04-27 11:17 -1.75095 36.26013 36084 ft 508 kts 184°
2026-04-27 11:17 -1.82134 36.25311 36038 ft 509 kts 184°
2026-04-27 11:18 -1.89163 36.24609 36048 ft 507 kts 184°
2026-04-27 11:18 -1.96186 36.23909 36043 ft 507 kts 184°
2026-04-27 11:19 -2.03217 36.23207 36032 ft 508 kts 184°
2026-04-27 11:19 -2.10258 36.22504 36024 ft 509 kts 184°
2026-04-27 11:20 -2.17300 36.21801 36016 ft 508 kts 184°
2026-04-27 11:20 -2.24299 36.21103 36015 ft 509 kts 185°
2026-04-27 11:21 -2.31355 36.20396 36012 ft 510 kts 185°
2026-04-27 11:21 -2.38416 36.19689 36008 ft 510 kts 185°
2026-04-27 11:22 -2.45483 36.18982 36011 ft 510 kts 185°
2026-04-27 11:22 -2.52547 36.18274 36014 ft 510 kts 185°
2026-04-27 11:23 -2.59613 36.17567 36014 ft 511 kts 185°
2026-04-27 11:23 -2.66681 36.16859 36018 ft 511 kts 185°
2026-04-27 11:24 -2.73751 36.16151 36019 ft 510 kts 185°
2026-04-27 11:24 -2.80820 36.15448 36022 ft 510 kts 185°
2026-04-27 11:25 -2.87885 36.14747 36023 ft 510 kts 185°
2026-04-27 11:25 -2.94946 36.14044 36019 ft 510 kts 185°
2026-04-27 11:26 -3.02001 36.13343 36020 ft 509 kts 185°
2026-04-27 11:26 -3.09049 36.12641 36043 ft 509 kts 185°
2026-04-27 11:27 -3.16105 36.11838 36016 ft 511 kts 186°
2026-04-27 11:27 -3.23169 36.11013 36017 ft 511 kts 186°
2026-04-27 11:28 -3.30231 36.10115 36010 ft 512 kts 186°
2026-04-27 11:28 -3.37295 36.09250 36007 ft 511 kts 186°
2026-04-27 11:29 -3.44306 36.08379 35998 ft 511 kts 186°
2026-04-27 11:29 -3.51364 36.07504 35991 ft 511 kts 186°
2026-04-27 11:30 -3.58417 36.06632 35988 ft 511 kts 186°
2026-04-27 11:30 -3.65472 36.05756 35980 ft 511 kts 186°
2026-04-27 11:31 -3.72528 36.04886 35976 ft 511 kts 186°
2026-04-27 11:31 -3.79589 36.04020 35970 ft 511 kts 186°
2026-04-27 11:32 -3.86652 36.03151 35969 ft 511 kts 186°
2026-04-27 11:32 -3.93708 36.02284 35965 ft 511 kts 186°
2026-04-27 11:33 -4.00758 36.01417 35965 ft 510 kts 186°
2026-04-27 11:33 -4.07798 36.00551 35967 ft 509 kts 186°
2026-04-27 11:34 -4.14830 35.99687 35964 ft 509 kts 186°
2026-04-27 11:34 -4.21865 35.98821 35965 ft 509 kts 186°
2026-04-27 11:35 -4.28899 35.97956 35968 ft 509 kts 186°
2026-04-27 11:35 -4.35927 35.97091 35967 ft 509 kts 186°
2026-04-27 11:36 -4.42959 35.96225 35967 ft 509 kts 186°
2026-04-27 11:36 -4.49994 35.95359 35973 ft 509 kts 186°
2026-04-27 11:37 -4.57015 35.94481 35973 ft 508 kts 186°
2026-04-27 11:37 -4.64035 35.93607 35978 ft 508 kts 186°
2026-04-27 11:38 -4.71052 35.92732 35979 ft 508 kts 186°
2026-04-27 11:38 -4.78060 35.91858 35978 ft 507 kts 186°
2026-04-27 11:39 -4.85056 35.90986 35981 ft 506 kts 186°
2026-04-27 11:39 -4.91994 35.90120 35979 ft 506 kts 186°
2026-04-27 11:40 -4.98980 35.89249 35975 ft 506 kts 186°
2026-04-27 11:40 -5.05966 35.88376 35973 ft 506 kts 186°
2026-04-27 11:41 -5.12947 35.87505 35968 ft 505 kts 186°
2026-04-27 11:41 -5.19925 35.86634 35967 ft 505 kts 186°
2026-04-27 11:42 -5.26883 35.85765 35962 ft 504 kts 186°
2026-04-27 11:42 -5.33836 35.84896 35958 ft 503 kts 186°
2026-04-27 11:43 -5.40788 35.84030 35956 ft 503 kts 186°
2026-04-27 11:43 -5.47737 35.83178 35954 ft 503 kts 186°
2026-04-27 11:44 -5.54682 35.82319 35955 ft 503 kts 186°
2026-04-27 11:44 -5.61627 35.81464 35948 ft 503 kts 186°
2026-04-27 11:45 -5.67391 35.80752 35946 ft 502 kts 186°
2026-04-27 11:45 -5.75499 35.79754 35943 ft 502 kts 186°
2026-04-27 11:46 -5.82430 35.78900 35943 ft 502 kts 186°
2026-04-27 11:46 -5.89367 35.78045 35938 ft 503 kts 186°
2026-04-27 11:47 -5.96311 35.77189 35937 ft 503 kts 186°
2026-04-27 11:47 -6.03251 35.76334 35936 ft 502 kts 186°
2026-04-27 11:48 -6.10177 35.75480 35935 ft 501 kts 186°
2026-04-27 11:48 -6.17094 35.74584 35940 ft 501 kts 192°
2026-04-27 11:49 -6.23867 35.72924 35937 ft 502 kts 194°
2026-04-27 11:49 -6.30640 35.71229 35936 ft 501 kts 193°
2026-04-27 11:50 -6.37418 35.69553 35929 ft 502 kts 193°
2026-04-27 11:50 -6.44158 35.67868 35926 ft 503 kts 193°
2026-04-27 11:51 -6.50988 35.66174 35928 ft 502 kts 193°
2026-04-27 11:52 -6.61115 35.63651 35923 ft 502 kts 193°
2026-04-27 11:52 -6.67898 35.61962 35918 ft 502 kts 193°
2026-04-27 11:53 -6.74681 35.60272 35917 ft 502 kts 193°
2026-04-27 11:53 -6.81449 35.58586 35917 ft 500 kts 193°
2026-04-27 11:54 -6.88195 35.56904 35913 ft 499 kts 193°
2026-04-27 11:54 -6.94987 35.55211 35910 ft 499 kts 193°
2026-04-27 11:55 -7.01673 35.53543 35909 ft 498 kts 193°
2026-04-27 11:55 -7.08397 35.51865 35913 ft 498 kts 193°
2026-04-27 11:56 -7.15126 35.50186 35915 ft 498 kts 193°
2026-04-27 11:56 -7.21856 35.48506 35916 ft 498 kts 193°
2026-04-27 11:57 -7.28584 35.46826 35914 ft 498 kts 194°
2026-04-27 11:57 -7.35313 35.45146 35913 ft 498 kts 194°
2026-04-27 11:58 -7.42044 35.43464 35920 ft 499 kts 194°
2026-04-27 11:58 -7.48784 35.41779 35924 ft 499 kts 194°
2026-04-27 11:59 -7.55531 35.40092 35934 ft 500 kts 194°
2026-04-27 11:59 -7.62282 35.38404 35941 ft 500 kts 194°
2026-04-27 12:00 -7.69033 35.36715 35952 ft 500 kts 194°
2026-04-27 12:00 -7.75791 35.35024 35959 ft 500 kts 194°
2026-04-27 12:01 -7.81401 35.33619 35967 ft 500 kts 194°
2026-04-27 12:01 -7.88155 35.31928 35975 ft 500 kts 194°
2026-04-27 12:02 -7.94911 35.30236 35981 ft 500 kts 194°
2026-04-27 12:02 -8.01672 35.28541 35988 ft 501 kts 194°
2026-04-27 12:03 -8.08440 35.26845 35991 ft 501 kts 194°
2026-04-27 12:03 -8.15213 35.25147 35997 ft 502 kts 194°
2026-04-27 12:04 -8.21991 35.23447 36004 ft 502 kts 194°
2026-04-27 12:04 -8.28770 35.21745 36007 ft 502 kts 194°
2026-04-27 12:05 -8.35553 35.20043 36005 ft 502 kts 194°
2026-04-27 12:05 -8.42333 35.18340 36005 ft 502 kts 194°
2026-04-27 12:06 -8.49120 35.16635 36002 ft 502 kts 194°
2026-04-27 12:06 -8.55898 35.14932 36002 ft 502 kts 195°
2026-04-27 12:07 -8.62679 35.13228 35998 ft 502 kts 195°
2026-04-27 12:07 -8.69458 35.11525 35996 ft 502 kts 195°
2026-04-27 12:08 -8.76229 35.09823 35994 ft 502 kts 195°
2026-04-27 12:08 -8.83003 35.08120 35994 ft 501 kts 195°